| time (UTC) | temp F | wind direction | speed knots | gust knots | rain 1hr in | rain 24hr in | rain mn in | humidity % | barometer mb |
| 20260502194556 | 66 | 124 | 0.9 | 5.2 | 0.00 | 0.00 | 0.00 | 52 | 1015.0 |
| 20260502194100 | 67 | 124 | 1.7 | 5.2 | 0.00 | 0.00 | 0.00 | 52 | 1014.9 |
| 20260502193556 | 67 | 121 | 2.6 | 5.2 | 0.00 | 0.00 | 0.00 | 52 | 1014.9 |
| 20260502193103 | 67 | 144 | 2.6 | 5.2 | 0.00 | 0.00 | 0.00 | 51 | 1015.0 |
| 20260502192558 | 67 | 150 | 2.6 | 5.2 | 0.00 | 0.00 | 0.00 | 50 | 1015.0 |
| 20260502192057 | 68 | 130 | 1.7 | 4.3 | 0.00 | 0.00 | 0.00 | 48 | 1014.9 |
| 20260502191602 | 68 | 131 | 1.7 | 4.3 | 0.00 | 0.00 | 0.00 | 47 | 1014.9 |
| 20260502191057 | 68 | 127 | 1.7 | 4.3 | 0.00 | 0.00 | 0.00 | 45 | 1014.8 |
| 20260502190558 | 69 | 188 | 1.7 | 3.5 | 0.00 | 0.00 | 0.00 | 44 | 1014.9 |
| 20260502190107 | 69 | 188 | 1.7 | 3.5 | 0.00 | 0.00 | 0.00 | 44 | 1014.9 |
| 20260502185556 | 70 | 198 | 1.7 | 2.6 | 0.00 | 0.00 | 0.00 | 44 | 1014.8 |
| 20260502185057 | 70 | 360 | 1.7 | 2.6 | 0.00 | 0.00 | 0.00 | 43 | 1014.8 |
| 20260502184601 | 71 | 360 | 1.7 | 2.6 | 0.00 | 0.00 | 0.00 | 43 | 1014.8 |
| 20260502184057 | 71 | 360 | 1.7 | 2.6 | 0.00 | 0.00 | 0.00 | 43 | 1014.8 |
| 20260502183557 | 72 | 360 | 1.7 | 2.6 | 0.00 | 0.00 | 0.00 | 42 | 1014.7 |
| 20260502183111 | 72 | 360 | 0.9 | 2.6 | 0.00 | 0.00 | 0.00 | 41 | 1014.7 |
| 20260502182558 | 73 | 199 | 0.9 | 2.6 | 0.00 | 0.00 | 0.00 | 40 | 1014.8 |
| 20260502182056 | 73 | 199 | 0.9 | 2.6 | 0.00 | 0.00 | 0.00 | 39 | 1014.7 |
| 20260502181557 | 74 | 199 | 0.9 | 2.6 | 0.00 | 0.00 | 0.00 | 38 | 1014.8 |
| 20260502181057 | 74 | 198 | 1.7 | 2.6 | 0.00 | 0.00 | 0.00 | 37 | 1014.7 |
| 20260502180602 | 74 | 198 | 0.9 | 3.5 | 0.00 | 0.00 | 0.00 | 36 | 1014.8 |
| 20260502164057 | 78 | 222 | 2.6 | 5.2 | 0.00 | 0.00 | 0.00 | 32 | 1015.3 |
| 20260502163557 | 78 | 220 | 2.6 | 4.3 | 0.00 | 0.00 | 0.00 | 30 | 1015.4 |
| 20260502163057 | 79 | 230 | 1.7 | 7.0 | 0.00 | 0.00 | 0.00 | 31 | 1015.4 |
| 20260502162557 | 79 | 221 | 2.6 | 7.8 | 0.00 | 0.00 | 0.00 | 30 | 1015.5 |
| 20260502162057 | 79 | 205 | 3.5 | 7.8 | 0.00 | 0.00 | 0.00 | 30 | 1015.5 |
| 20260502161623 | 80 | 208 | 1.7 | 5.2 | 0.00 | 0.00 | 0.00 | 29 | 1015.6 |
| 20260502161057 | 80 | 187 | 2.6 | 5.2 | 0.00 | 0.00 | 0.00 | 30 | 1015.7 |
| 20260502160556 | 80 | 210 | 1.7 | 5.2 | 0.00 | 0.00 | 0.00 | 31 | 1015.7 |
| 20260502152059 | 81 | 253 | 2.6 | 7.8 | 0.00 | 0.00 | 0.00 | 27 | 1016.1 |
| 20260502151609 | 81 | 211 | 2.6 | 10.4 | 0.00 | 0.00 | 0.00 | 30 | 1016.1 |
| 20260502151056 | 81 | 236 | 3.5 | 10.4 | 0.00 | 0.00 | 0.00 | 28 | 1016.1 |
| 20260502150557 | 81 | 209 | 4.3 | 10.4 | 0.00 | 0.00 | 0.00 | 29 | 1016.3 |
| 20260502130556 | 82 | 236 | 5.2 | 11.3 | 0.00 | 0.00 | 0.00 | 29 | 1017.5 |
| 20260502123556 | 82 | 269 | 2.6 | 9.6 | 0.00 | 0.00 | 0.00 | 26 | 1017.9 |
| 20260502123100 | 82 | 215 | 5.2 | 9.6 | 0.00 | 0.00 | 0.00 | 27 | 1017.9 |
| 20260502122557 | 82 | 245 | 2.6 | 12.2 | 0.00 | 0.00 | 0.00 | 27 | 1018.0 |
| 20260502122056 | 82 | 223 | 7.0 | 12.2 | 0.00 | 0.00 | 0.00 | 27 | 1018.0 |
| 20260502121559 | 82 | 223 | 4.3 | 10.4 | 0.00 | 0.00 | 0.00 | 24 | 1018.1 |
| 20260502121057 | 81 | 230 | 4.3 | 10.4 | 0.00 | 0.00 | 0.00 | 25 | 1018.1 |
| 20260502120558 | 81 | 161 | 4.3 | 8.7 | 0.00 | 0.00 | 0.00 | 24 | 1018.1 |
| 20260502115556 | 81 | 148 | 1.7 | 7.8 | 0.00 | 0.00 | 0.00 | 28 | 1018.3 |
| 20260502115059 | 81 | 134 | 2.6 | 9.6 | 0.00 | 0.00 | 0.00 | 28 | 1018.4 |
| 20260502114557 | 80 | 188 | 3.5 | 9.6 | 0.00 | 0.00 | 0.00 | 28 | 1018.5 |
| 20260502114059 | 80 | 247 | 4.3 | 8.7 | 0.00 | 0.00 | 0.00 | 29 | 1018.5 |
| 20260502113556 | 80 | 240 | 4.3 | 7.8 | 0.00 | 0.00 | 0.00 | 31 | 1018.6 |
| 20260502113057 | 80 | 0 | 3.5 | 9.6 | 0.00 | 0.00 | 0.00 | 30 | 1018.7 |
| 20260502112555 | 80 | 235 | 4.3 | 9.6 | 0.00 | 0.00 | 0.00 | 31 | 1018.8 |
| 20260502112055 | 80 | 228 | 4.3 | 9.6 | 0.00 | 0.00 | 0.00 | 30 | 1018.9 |
| 20260502111606 | 80 | 242 | 2.6 | 7.8 | 0.00 | 0.00 | 0.00 | 30 | 1018.9 |
| 20260502111055 | 79 | 243 | 2.6 | 11.3 | 0.00 | 0.00 | 0.00 | 32 | 1019.0 |
| 20260502110557 | 79 | 229 | 6.1 | 11.3 | 0.00 | 0.00 | 0.00 | 32 | 1019.0 |
| 20260502110058 | 79 | 238 | 3.5 | 8.7 | 0.00 | 0.00 | 0.00 | 32 | 1019.1 |
| 20260502105558 | 78 | 221 | 3.5 | 7.8 | 0.00 | 0.00 | 0.00 | 35 | 1019.2 |
| 20260502105057 | 78 | 188 | 3.5 | 10.4 | 0.00 | 0.00 | 0.00 | 35 | 1019.3 |
| 20260502104559 | 78 | 223 | 5.2 | 10.4 | 0.00 | 0.00 | 0.00 | 33 | 1019.3 |
| 20260502104056 | 78 | 223 | 5.2 | 10.4 | 0.00 | 0.00 | 0.00 | 34 | 1019.4 |
| 20260502103558 | 77 | 232 | 5.2 | 11.3 | 0.00 | 0.00 | 0.00 | 32 | 1019.5 |
| 20260502103059 | 77 | 232 | 6.1 | 11.3 | 0.00 | 0.00 | 0.00 | 33 | 1019.6 |
| 20260502102557 | 77 | 181 | 5.2 | 10.4 | 0.00 | 0.00 | 0.00 | 32 | 1019.6 |
| 20260502102056 | 77 | 221 | 2.6 | 10.4 | 0.00 | 0.00 | 0.00 | 37 | 1019.7 |
| 20260502101555 | 77 | 238 | 4.3 | 11.3 | 0.00 | 0.00 | 0.00 | 35 | 1019.8 |
| 20260502101055 | 77 | 224 | 3.5 | 12.2 | 0.00 | 0.00 | 0.00 | 33 | 1019.9 |
| 20260502100556 | 77 | 164 | 7.0 | 12.2 | 0.00 | 0.00 | 0.00 | 35 | 1020.0 |
| 20260502091056 | 75 | 196 | 5.2 | 13.0 | 0.00 | 0.00 | 0.00 | 34 | 1020.4 |
| 20260502090558 | 75 | 199 | 5.2 | 10.4 | 0.00 | 0.00 | 0.00 | 34 | 1020.3 |
| 20260502090114 | 75 | 213 | 4.3 | 10.4 | 0.00 | 0.00 | 0.00 | 35 | 1020.4 |
| 20260502071057 | 64 | 159 | 0.9 | 5.2 | 0.00 | 0.00 | 0.00 | 56 | 1021.1 |
| 20260502070556 | 64 | 178 | 1.7 | 7.0 | 0.00 | 0.00 | 0.00 | 54 | 1021.3 |
| 20260502070109 | 63 | 144 | 2.6 | 7.0 | 0.00 | 0.00 | 0.00 | 55 | 1021.2 |
| 20260502065556 | 62 | 360 | 0.9 | 4.3 | 0.00 | 0.00 | 0.00 | 57 | 1021.3 |
| 20260502065056 | 62 | 360 | 1.7 | 4.3 | 0.00 | 0.00 | 0.00 | 58 | 1021.4 |
| 20260502064557 | 61 | 360 | 1.7 | 7.0 | 0.00 | 0.00 | 0.00 | 57 | 1021.4 |
| 20260502064056 | 61 | 360 | 3.5 | 7.0 | 0.00 | 0.00 | 0.00 | 58 | 1021.4 |
| 20260502063556 | 60 | 360 | 2.6 | 8.7 | 0.00 | 0.00 | 0.00 | 58 | 1021.5 |
| 20260502063057 | 60 | 360 | 3.5 | 8.7 | 0.00 | 0.00 | 0.00 | 59 | 1021.5 |
| 20260502062556 | 59 | 360 | 3.5 | 7.8 | 0.00 | 0.00 | 0.00 | 59 | 1021.5 |
| 20260502062056 | 59 | 360 | 2.6 | 7.0 | 0.00 | 0.00 | 0.00 | 60 | 1021.5 |
| 20260502061557 | 58 | 360 | 2.6 | 7.0 | 0.00 | 0.00 | 0.00 | 62 | 1021.5 |
| 20260502061055 | 57 | 0 | 0.0 | 5.2 | 0.00 | 0.00 | 0.00 | 64 | 1021.5 |
| 20260502060559 | 57 | 175 | 1.7 | 5.2 | 0.00 | 0.00 | 0.00 | 65 | 1021.6 |
| 20260502060055 | 56 | 175 | 1.7 | 5.2 | 0.00 | 0.00 | 0.00 | 65 | 1021.6 |
| 20260502055557 | 56 | 0 | 1.7 | 7.0 | 0.00 | 0.00 | 0.00 | 65 | 1021.6 |
| 20260502055056 | 55 | 163 | 2.6 | 7.8 | 0.00 | 0.00 | 0.00 | 65 | 1021.6 |
| 20260502054556 | 55 | 171 | 3.5 | 7.8 | 0.00 | 0.00 | 0.00 | 67 | 1021.6 |
| 20260502054056 | 54 | 146 | 1.7 | 6.1 | 0.00 | 0.00 | 0.00 | 67 | 1021.7 |
| 20260502053559 | 53 | 159 | 1.7 | 6.1 | 0.00 | 0.00 | 0.00 | 68 | 1021.7 |
| 20260502053124 | 53 | 360 | 1.7 | 5.2 | 0.00 | 0.00 | 0.00 | 69 | 1021.7 |
| 20260502052557 | 52 | 360 | 1.7 | 5.2 | 0.00 | 0.00 | 0.00 | 69 | 1021.7 |
| 20260502052100 | 52 | 360 | 1.7 | 5.2 | 0.00 | 0.00 | 0.00 | 70 | 1021.7 |
| 20260502051614 | 51 | 360 | 1.7 | 4.3 | 0.00 | 0.00 | 0.00 | 71 | 1021.8 |
| 20260502051100 | 51 | 360 | 1.7 | 3.5 | 0.00 | 0.00 | 0.00 | 71 | 1021.7 |
| 20260502050601 | 51 | 360 | 0.9 | 3.5 | 0.00 | 0.00 | 0.00 | 71 | 1021.7 |
| 20260502050059 | 51 | 360 | 0.9 | 5.2 | 0.00 | 0.00 | 0.00 | 71 | 1021.8 |
| 20260502045557 | 50 | 360 | 1.7 | 5.2 | 0.00 | 0.00 | 0.00 | 71 | 1021.7 |
| 20260502045059 | 50 | 360 | 2.6 | 4.3 | 0.00 | 0.00 | 0.00 | 71 | 1021.7 |
| 20260502044557 | 50 | 360 | 0.9 | 3.5 | 0.00 | 0.00 | 0.00 | 71 | 1021.7 |
| 20260502044059 | 50 | 360 | 1.7 | 3.5 | 0.00 | 0.00 | 0.00 | 70 | 1021.8 |
| 20260502043557 | 50 | 360 | 0.9 | 4.3 | 0.00 | 0.00 | 0.00 | 70 | 1021.8 |
| 20260502043111 | 50 | 360 | 0.9 | 5.2 | 0.00 | 0.00 | 0.00 | 70 | 1021.8 |
| 20260502042558 | 50 | 360 | 1.7 | 7.0 | 0.00 | 0.00 | 0.00 | 70 | 1021.7 |
| 20260502042058 | 50 | 360 | 2.6 | 7.0 | 0.00 | 0.00 | 0.00 | 70 | 1021.7 |
| 20260502041626 | 50 | 360 | 2.6 | 7.0 | 0.00 | 0.00 | 0.00 | 70 | 1021.7 |
| 20260502041057 | 50 | 360 | 2.6 | 7.0 | 0.00 | 0.00 | 0.00 | 70 | 1021.8 |
| 20260502040557 | 50 | 360 | 2.6 | 7.0 | 0.00 | 0.00 | 0.00 | 69 | 1021.7 |
| 20260502040057 | 50 | 360 | 2.6 | 4.3 | 0.00 | 0.00 | 0.00 | 68 | 1021.7 |
| 20260502035557 | 51 | 360 | 1.7 | 4.3 | 0.00 | 0.00 | 0.00 | 68 | 1021.8 |
| 20260502035057 | 51 | 360 | 1.7 | 4.3 | 0.00 | 0.00 | 0.00 | 67 | 1021.8 |
| 20260502034555 | 51 | 360 | 0.9 | 3.5 | 0.00 | 0.00 | 0.00 | 66 | 1021.8 |
| 20260502034056 | 52 | 360 | 0.9 | 3.5 | 0.00 | 0.00 | 0.00 | 66 | 1021.9 |
| 20260502033559 | 52 | 360 | 0.9 | 5.2 | 0.00 | 0.00 | 0.00 | 66 | 1021.9 |
| 20260502033107 | 52 | 360 | 0.0 | 7.0 | 0.00 | 0.00 | 0.00 | 66 | 1021.9 |
| 20260502032557 | 52 | 360 | 1.7 | 7.0 | 0.00 | 0.00 | 0.00 | 66 | 1021.9 |
| 20260502032057 | 52 | 360 | 1.7 | 7.8 | 0.00 | 0.00 | 0.00 | 66 | 1022.0 |
| 20260502031556 | 51 | 360 | 2.6 | 7.8 | 0.00 | 0.00 | 0.00 | 67 | 1022.1 |
| 20260502031058 | 51 | 360 | 3.5 | 7.0 | 0.00 | 0.00 | 0.00 | 67 | 1022.1 |
| 20260502030558 | 51 | 360 | 3.5 | 7.8 | 0.00 | 0.00 | 0.00 | 68 | 1022.0 |
| 20260502030058 | 51 | 360 | 3.5 | 8.7 | 0.00 | 0.00 | 0.00 | 68 | 1022.0 |
| 20260502025557 | 51 | 360 | 4.3 | 8.7 | 0.00 | 0.00 | 0.00 | 68 | 1022.2 |
| 20260502025057 | 51 | 360 | 3.5 | 7.0 | 0.00 | 0.00 | 0.00 | 68 | 1022.3 |
| 20260502024557 | 50 | 360 | 3.5 | 7.0 | 0.00 | 0.00 | 0.00 | 68 | 1022.2 |
| 20260502024058 | 50 | 360 | 2.6 | 7.0 | 0.00 | 0.00 | 0.00 | 68 | 1022.3 |
| 20260502023559 | 50 | 360 | 2.6 | 5.2 | 0.00 | 0.00 | 0.00 | 68 | 1022.4 |
| 20260502023059 | 50 | 360 | 2.6 | 5.2 | 0.00 | 0.00 | 0.00 | 68 | 1022.5 |
| 20260502022556 | 51 | 360 | 2.6 | 5.2 | 0.00 | 0.00 | 0.00 | 68 | 1022.5 |
| 20260502022056 | 51 | 360 | 3.5 | 5.2 | 0.00 | 0.00 | 0.00 | 67 | 1022.5 |
| 20260502021557 | 51 | 360 | 1.7 | 4.3 | 0.00 | 0.00 | 0.00 | 66 | 1022.6 |
| 20260502021056 | 51 | 360 | 1.7 | 4.3 | 0.00 | 0.00 | 0.00 | 66 | 1022.7 |
| 20260502020558 | 52 | 360 | 1.7 | 4.3 | 0.00 | 0.00 | 0.00 | 65 | 1022.7 |
| 20260502020106 | 52 | 360 | 1.7 | 4.3 | 0.00 | 0.00 | 0.00 | 64 | 1022.7 |
| 20260502015556 | 53 | 360 | 1.7 | 3.5 | 0.00 | 0.00 | 0.00 | 64 | 1022.6 |
| 20260502015056 | 53 | 360 | 0.9 | 3.5 | 0.00 | 0.00 | 0.00 | 63 | 1022.8 |
| 20260502014559 | 53 | 360 | 0.0 | 4.3 | 0.00 | 0.00 | 0.00 | 64 | 1022.8 |
| 20260502014056 | 53 | 0 | 0.9 | 4.3 | 0.00 | 0.00 | 0.00 | 63 | 1022.8 |
| 20260502013557 | 54 | 360 | 0.9 | 5.2 | 0.00 | 0.00 | 0.00 | 62 | 1022.8 |
| 20260502013101 | 54 | 360 | 1.7 | 5.2 | 0.00 | 0.00 | 0.00 | 62 | 1022.9 |
| 20260502012559 | 54 | 360 | 2.6 | 5.2 | 0.00 | 0.00 | 0.00 | 62 | 1022.9 |
| 20260502012056 | 54 | 360 | 1.7 | 5.2 | 0.00 | 0.00 | 0.00 | 62 | 1022.9 |
| 20260502011603 | 54 | 360 | 2.6 | 5.2 | 0.00 | 0.00 | 0.00 | 62 | 1023.0 |
| 20260502011056 | 54 | 360 | 2.6 | 5.2 | 0.00 | 0.00 | 0.00 | 62 | 1023.0 |
| 20260502010558 | 54 | 360 | 1.7 | 5.2 | 0.00 | 0.00 | 0.00 | 62 | 1023.1 |
| 20260502005556 | 54 | 360 | 2.6 | 7.8 | 0.00 | 0.00 | 0.00 | 62 | 1023.1 |
| 20260502005056 | 54 | 360 | 1.7 | 7.0 | 0.00 | 0.00 | 0.00 | 62 | 1023.2 |
| 20260502004555 | 54 | 360 | 3.5 | 7.0 | 0.00 | 0.00 | 0.00 | 63 | 1023.2 |
| 20260502004057 | 54 | 360 | 2.6 | 7.0 | 0.00 | 0.00 | 0.00 | 63 | 1023.2 |
| 20260502003556 | 53 | 360 | 2.6 | 7.0 | 0.00 | 0.00 | 0.00 | 63 | 1023.2 |
| 20260502003055 | 53 | 360 | 2.6 | 7.8 | 0.00 | 0.00 | 0.00 | 63 | 1023.4 |
| 20260502002557 | 53 | 360 | 2.6 | 7.8 | 0.00 | 0.00 | 0.00 | 64 | 1023.4 |
| 20260502002056 | 53 | 360 | 3.5 | 7.0 | 0.00 | 0.00 | 0.00 | 64 | 1023.4 |
| 20260502001602 | 53 | 360 | 1.7 | 5.2 | 0.00 | 0.00 | 0.00 | 64 | 1023.5 |
| 20260502001056 | 53 | 360 | 2.6 | 4.3 | 0.00 | 0.00 | 0.00 | 64 | 1023.5 |
| 20260502000556 | 53 | 360 | 1.7 | 7.8 | 0.00 | 0.00 | 0.00 | 65 | 1023.5 |
| 20260502000058 | 53 | 360 | 2.6 | 7.8 | 0.00 | 0.00 | 0.00 | 65 | 1023.6 |
| 20260501235559 | 53 | 360 | 2.6 | 8.7 | 0.00 | 0.00 | 0.00 | 65 | 1023.6 |
| 20260501235056 | 53 | 360 | 2.6 | 8.7 | 0.00 | 0.00 | 0.00 | 65 | 1023.7 |
| 20260501234557 | 53 | 360 | 1.7 | 5.2 | 0.00 | 0.00 | 0.00 | 65 | 1023.8 |
| 20260501234056 | 53 | 360 | 1.7 | 7.0 | 0.00 | 0.00 | 0.00 | 65 | 1023.7 |
| 20260501233556 | 53 | 360 | 1.7 | 7.0 | 0.00 | 0.00 | 0.00 | 65 | 1023.8 |
| 20260501233109 | 53 | 360 | 2.6 | 7.0 | 0.00 | 0.00 | 0.00 | 65 | 1023.9 |
| 20260501232555 | 53 | 360 | 3.5 | 7.0 | 0.00 | 0.00 | 0.00 | 65 | 1023.9 |
| 20260501232056 | 53 | 360 | 2.6 | 5.2 | 0.00 | 0.00 | 0.00 | 65 | 1023.8 |
| 20260501231629 | 53 | 360 | 1.7 | 3.5 | 0.00 | 0.00 | 0.00 | 64 | 1023.8 |
| 20260501231056 | 53 | 360 | 0.9 | 4.3 | 0.00 | 0.00 | 0.00 | 64 | 1023.8 |
| 20260501230556 | 53 | 360 | 0.9 | 4.3 | 0.00 | 0.00 | 0.00 | 64 | 1023.9 |
| 20260501230055 | 54 | 360 | 0.9 | 4.3 | 0.00 | 0.00 | 0.00 | 64 | 1023.9 |
| 20260501225556 | 54 | 360 | 0.9 | 3.5 | 0.00 | 0.00 | 0.00 | 63 | 1023.9 |
| 20260501225058 | 54 | 360 | 0.9 | 3.5 | 0.00 | 0.00 | 0.00 | 63 | 1023.9 |
| 20260501224558 | 54 | 0 | 0.9 | 3.5 | 0.00 | 0.00 | 0.00 | 62 | 1023.9 |
| 20260501224059 | 54 | 360 | 0.0 | 3.5 | 0.00 | 0.00 | 0.00 | 62 | 1023.9 |
| 20260501223600 | 54 | 360 | 0.0 | 3.5 | 0.00 | 0.00 | 0.00 | 62 | 1023.9 |
| 20260501223129 | 54 | 360 | 0.9 | 4.3 | 0.00 | 0.00 | 0.00 | 62 | 1024.0 |
| 20260501222556 | 55 | 360 | 0.9 | 4.3 | 0.00 | 0.00 | 0.00 | 62 | 1023.9 |
| 20260501222056 | 55 | 360 | 0.0 | 4.3 | 0.00 | 0.00 | 0.00 | 62 | 1024.0 |
| 20260501221557 | 55 | 360 | 1.7 | 4.3 | 0.00 | 0.00 | 0.00 | 62 | 1024.0 |
| 20260501221056 | 55 | 360 | 0.9 | 4.3 | 0.00 | 0.00 | 0.00 | 61 | 1024.0 |
| 20260501220556 | 55 | 360 | 1.7 | 4.3 | 0.00 | 0.00 | 0.00 | 61 | 1024.0 |
| 20260501220055 | 55 | 360 | 1.7 | 4.3 | 0.00 | 0.00 | 0.00 | 61 | 1024.0 |
| 20260501215556 | 55 | 360 | 0.9 | 3.5 | 0.00 | 0.00 | 0.00 | 60 | 1024.0 |
| 20260501215059 | 56 | 360 | 0.9 | 4.3 | 0.00 | 0.00 | 0.00 | 60 | 1024.0 |
| 20260501214557 | 56 | 360 | 0.9 | 4.3 | 0.00 | 0.00 | 0.00 | 59 | 1024.0 |
| 20260501214055 | 56 | 360 | 0.9 | 3.5 | 0.00 | 0.00 | 0.00 | 59 | 1024.0 |
| 20260501213555 | 56 | 360 | 0.9 | 3.5 | 0.00 | 0.00 | 0.00 | 59 | 1024.0 |
| 20260501213100 | 56 | 360 | 0.0 | 3.5 | 0.00 | 0.00 | 0.00 | 58 | 1024.0 |
| 20260501212556 | 57 | 360 | 0.9 | 5.2 | 0.00 | 0.00 | 0.00 | 58 | 1024.1 |
| 20260501212056 | 57 | 360 | 1.7 | 5.2 | 0.00 | 0.00 | 0.00 | 58 | 1024.1 |
| 20260501211556 | 57 | 360 | 1.7 | 5.2 | 0.00 | 0.00 | 0.00 | 57 | 1024.1 |
| 20260501211055 | 57 | 360 | 0.9 | 5.2 | 0.00 | 0.00 | 0.00 | 57 | 1024.2 |
| 20260501210556 | 58 | 0 | 1.7 | 5.2 | 0.00 | 0.00 | 0.00 | 56 | 1024.2 |
| 20260501210100 | 58 | 360 | 2.6 | 7.0 | 0.00 | 0.00 | 0.00 | 56 | 1024.1 |
| 20260501205556 | 58 | 360 | 1.7 | 7.0 | 0.00 | 0.00 | 0.00 | 56 | 1024.2 |
| 20260501205055 | 58 | 360 | 3.5 | 7.8 | 0.00 | 0.00 | 0.00 | 56 | 1024.2 |
| 20260501204625 | 58 | 360 | 3.5 | 7.8 | 0.00 | 0.00 | 0.00 | 55 | 1024.2 |
| 20260501204055 | 59 | 360 | 3.5 | 7.8 | 0.00 | 0.00 | 0.00 | 55 | 1024.3 |
| 20260501203556 | 59 | 360 | 2.6 | 9.6 | 0.00 | 0.00 | 0.00 | 54 | 1024.3 |
| 20260501203056 | 59 | 360 | 4.3 | 9.6 | 0.00 | 0.00 | 0.00 | 54 | 1024.3 |
| 20260501202556 | 59 | 360 | 3.5 | 7.8 | 0.00 | 0.00 | 0.00 | 53 | 1024.3 |
| 20260501202058 | 59 | 360 | 3.5 | 10.4 | 0.00 | 0.00 | 0.00 | 53 | 1024.4 |
| 20260501201607 | 60 | 360 | 3.5 | 10.4 | 0.00 | 0.00 | 0.00 | 52 | 1024.4 |
| 20260501201056 | 60 | 360 | 5.2 | 9.6 | 0.00 | 0.00 | 0.00 | 52 | 1024.4 |
| 20260501200556 | 60 | 360 | 4.3 | 9.6 | 0.00 | 0.00 | 0.00 | 52 | 1024.4 |
| 20260501200056 | 60 | 360 | 3.5 | 9.6 | 0.00 | 0.00 | 0.00 | 52 | 1024.5 |
| 20260501195614 | 60 | 360 | 3.5 | 9.6 | 0.00 | 0.00 | 0.00 | 51 | 1024.5 |
| 20260501195056 | 61 | 360 | 2.6 | 9.6 | 0.00 | 0.00 | 0.00 | 51 | 1024.5 |